DECAYED
Showing default

FLOCK 4Y 18, 55023 (Decayed)

Orbit data source: Space-Track

FLOCK 4Y 18, 55023 was a payload satellite owned by Planet (US) in LEO that was launched on Tue, 03 Jan 2023 UTC via an FALCON 9 launch vehicle from the Air Force Eastern Test Range (AFETR). Payload-class satellites include a variety of spacecraft equipped with specific instruments for various scientific and technological missions. These include communications satellites like Starlink; space stations such as the ISS; scientific satellites like the Hubble; Earth observation satellites from companies like Planet Labs, Umbra, and HawkEye 360; GPS; miniature CubeSats for education and research; and military/defense satellites.

Not visible in the next 10 days
Identifier
55023, 2023-001Q
Orbit
Decayed
Country
Flag of USUS
Related business
Manufacturer
Planet
Mission
Decayed Commercial Imaging
Bus & Motor
CUBESAT 3U, Unknown motor
Mass
5.7 kg wet, 5.7 kg dry
Launch date (UTC)
2023-01-03 (3 years ago)
Launch vehicle
FALCON 9
Launch site
Air Force Eastern Test Range (AFETR)
Object type
Payload
Rocket body
Debris
Shape & HBR
Box + 2 Pan, 1.0 m
Radar Cross Section
0.108 m², Medium (>0.1 m² and < 1m²)

Expand to show TLE details & history
Last TLE update: 7 months ago

TLE from 7 months ago
0 FLOCK 4Y 18
1 55023U 23001Q   25263.96459087  .04700275  24072-5  20841-2 0  9999
2 55023  97.3338 342.6272 0012657 276.0158  83.9690 16.22145271152077
Epoch: 2025-09-20T23:09Z
TLE epoch observation values (Epoch: 2025-09-20T23:09:00.651Z)
Latitude
0.00003°
Longitude
-4.71544°
Altitude
216.097 km
Speed
7.777 km/s
True Right ascension
22h 50m 30s
True Declination
0° 00' 00"
Sunlit
Object was in full shadow at epoch
Visualization orbit readout
Latitude
Unknown
Longitude
Unknown
Altitude
Unknown
Speed
Unknown
Apparent Right ascension
Unknown
Apparent Declination
Unknown
Sunlit
N/A
Visualization observer readout
Local Sidereal Time
20:53:51
Azimuth
Unknown
Elevation
Unknown
Doppler factor
Unknown
Orbital elements
Apogee altitude
218.901 km
Perigee altitude
202.222 km
Semi-major axis
6,588.699 km
Eccentricity
0.00127
Inclination
97.3338°
RAAN
342.6272°
Arg. of periapsis
276.0158°
True anomaly
84.11326°
Mean anomaly
83.969°
Eccentric anomaly
84.04113°
Mean motion
4.0583 °/min
Orbital period
88.71 mins
BSTAR
0.0020841
Loading maneuver chart data...
Computing Atmospheric mass density...
Loading historical data...
Loading historical data...
Loading historical data...
Loading historical data...
Loading historical data...
Loading historical data...
Loading historical data...

Documentation

Showing up to 5 results
|